When you browse on this site, cookies collect data to enhance your experience and personalize the content and advertising you see.
Visit our Privacy Policy to learn more. By continuing to use the site, you agree to this use of cookies and data.
  • In Germany
  • List of Countries
  • For 7 days
  • Water Temperature
  • Satellite Maps
  • Weather Map
  • Weather Widgets
  • user-avatar
    Login

    Hourly Weather Perth

    Today, 25 April, Thursday

    Time Temperature Precipitation Wind Pressure Humidity
    00:00 +21°C° 0 mm 4 mps 767 mmHg 42%
    01:00 +21°C° 0 mm 4 mps 767 mmHg 43%
    02:00 +21°C° 0 mm 5 mps 767 mmHg 45%
    03:00 +20°C° 0 mm 5 mps 767 mmHg 46%
    04:00 +20°C° 0 mm 5 mps 767 mmHg 46%
    05:00 +19°C° 0 mm 5 mps 767 mmHg 47%
    06:00 +20°C° 0 mm 5 mps 767 mmHg 47%
    07:00 +20°C° 0 mm 5 mps 767 mmHg 47%
    08:00 +20°C° 0 mm 5 mps 768 mmHg 46%
    09:00 +22°C° 0 mm 4 mps 767 mmHg 41%
    10:00 +26°C° 0 mm 4 mps 767 mmHg 36%
    11:00 +28°C° 0 mm 4 mps 767 mmHg 32%
    12:00 +29°C° 0 mm 4 mps 767 mmHg 30%
    13:00 +29°C° 0 mm 3 mps 766 mmHg 28%
    14:00 +30°C° 0 mm 3 mps 766 mmHg 27%
    15:00 +30°C° 0 mm 3 mps 766 mmHg 28%
    16:00 +29°C° 0 mm 3 mps 766 mmHg 29%
    17:00 +29°C° 0 mm 3 mps 765 mmHg 30%
    18:00 +27°C° 0 mm 3 mps 766 mmHg 33%
    19:00 +26°C° 0 mm 3 mps 766 mmHg 35%
    20:00 +24°C° 0 mm 3 mps 766 mmHg 37%
    21:00 +23°C° 0 mm 4 mps 767 mmHg 37%
    22:00 +23°C° 0 mm 4 mps 767 mmHg 38%
    23:00 +23°C° 0 mm 5 mps 767 mmHg 38%

    Tomorrow, 26 April, Friday

    Time Temperature Precipitation Wind Pressure Humidity
    00:00 +22°C° 0 mm 5 mps 767 mmHg 41%
    01:00 +21°C° 0 mm 5 mps 767 mmHg 45%
    02:00 +21°C° 0 mm 6 mps 767 mmHg 48%
    03:00 +20°C° 0 mm 6 mps 767 mmHg 50%
    04:00 +20°C° 0 mm 6 mps 767 mmHg 52%
    05:00 +20°C° 0 mm 6 mps 767 mmHg 54%
    06:00 +20°C° 0 mm 6 mps 768 mmHg 55%
    07:00 +20°C° 0 mm 6 mps 768 mmHg 56%
    08:00 +20°C° 0 mm 6 mps 768 mmHg 57%
    09:00 +22°C° 0 mm 6 mps 768 mmHg 49%
    10:00 +24°C° 0 mm 6 mps 768 mmHg 42%
    11:00 +27°C° 0 mm 6 mps 767 mmHg 35%
    12:00 +28°C° 0 mm 5 mps 767 mmHg 32%
    13:00 +29°C° 0 mm 5 mps 766 mmHg 30%
    14:00 +29°C° 0 mm 5 mps 766 mmHg 27%
    15:00 +29°C° 0 mm 4 mps 766 mmHg 28%
    16:00 +28°C° 0 mm 4 mps 766 mmHg 28%
    17:00 +28°C° 0 mm 3 mps 766 mmHg 29%
    18:00 +27°C° 0 mm 4 mps 766 mmHg 31%
    19:00 +25°C° 0 mm 4 mps 766 mmHg 34%
    20:00 +23°C° 0 mm 4 mps 766 mmHg 36%
    21:00 +23°C° 0 mm 4 mps 767 mmHg 36%
    22:00 +22°C° 0 mm 4 mps 767 mmHg 36%
    23:00 +22°C° 0 mm 4 mps 767 mmHg 36%

    Day after tomorrow, 27 April, Saturday

    Time Temperature Precipitation Wind Pressure Humidity
    00:00 +22°C° 0 mm 4 mps 767 mmHg 37%
    01:00 +21°C° 0 mm 4 mps 767 mmHg 37%
    02:00 +21°C° 0 mm 4 mps 767 mmHg 38%
    03:00 +20°C° 0 mm 4 mps 767 mmHg 40%
    04:00 +20°C° 0 mm 4 mps 767 mmHg 41%
    05:00 +19°C° 0 mm 4 mps 767 mmHg 43%
    06:00 +20°C° 0 mm 4 mps 767 mmHg 44%
    07:00 +20°C° 0 mm 5 mps 767 mmHg 44%
    08:00 +20°C° 0 mm 5 mps 768 mmHg 45%
    09:00 +22°C° 0 mm 5 mps 767 mmHg 41%
    10:00 +25°C° 0 mm 5 mps 767 mmHg 37%
    11:00 +27°C° 0 mm 5 mps 767 mmHg 33%
    12:00 +27°C° 0 mm 5 mps 766 mmHg 30%
    13:00 +28°C° 0 mm 4 mps 765 mmHg 28%
    14:00 +29°C° 0 mm 4 mps 765 mmHg 26%
    15:00 +29°C° 0 mm 3 mps 765 mmHg 28%
    16:00 +28°C° 0 mm 3 mps 764 mmHg 29%
    17:00 +28°C° 0 mm 2 mps 764 mmHg 30%
    18:00 +26°C° 0 mm 2 mps 765 mmHg 32%
    19:00 +25°C° 0 mm 3 mps 765 mmHg 34%
    20:00 +22°C° 0 mm 3 mps 765 mmHg 36%
    21:00 +22°C° 0 mm 3 mps 765 mmHg 36%
    22:00 +21°C° 0 mm 3 mps 765 mmHg 36%
    23:00 +21°C° 0 mm 3 mps 765 mmHg 36%

    28 April, Sunday

    Time Temperature Precipitation Wind Pressure Humidity
    00:00 +21°C° 0 mm 4 mps 765 mmHg 36%
    01:00 +20°C° 0 mm 4 mps 765 mmHg 37%
    02:00 +20°C° 0 mm 4 mps 764 mmHg 38%
    03:00 +20°C° 0 mm 4 mps 764 mmHg 39%
    04:00 +20°C° 0 mm 4 mps 764 mmHg 40%
    05:00 +19°C° 0 mm 4 mps 764 mmHg 41%
    06:00 +20°C° 0 mm 4 mps 764 mmHg 40%
    07:00 +20°C° 0 mm 4 mps 764 mmHg 40%
    08:00 +21°C° 0 mm 5 mps 764 mmHg 40%
    09:00 +23°C° 0 mm 5 mps 764 mmHg 36%
    10:00 +26°C° 0 mm 5 mps 764 mmHg 32%
    11:00 +28°C° 0 mm 5 mps 763 mmHg 29%
    12:00 +29°C° 0 mm 4 mps 763 mmHg 28%
    13:00 +30°C° 0 mm 4 mps 762 mmHg 26%
    14:00 +30°C° 0 mm 3 mps 761 mmHg 25%
    15:00 +29°C° 0 mm 3 mps 761 mmHg 28%
    16:00 +29°C° 0 mm 3 mps 761 mmHg 30%
    17:00 +28°C° 0 mm 3 mps 761 mmHg 33%
    18:00 +26°C° 0 mm 2 mps 761 mmHg 39%
    19:00 +24°C° 0 mm 1 mps 762 mmHg 46%
    20:00 +21°C° 0 mm 0 mps 762 mmHg 52%
    21:00 +23°C° 0 mm 1 mps 762 mmHg 52%
    22:00 +23°C° 0 mm 1 mps 761 mmHg 52%
    23:00 +23°C° 0 mm 1 mps 761 mmHg 51%

    29 April, Monday

    Time Temperature Precipitation Wind Pressure Humidity
    00:00 +22°C° 0 mm 1 mps 761 mmHg 52%
    01:00 +22°C° 0 mm 1 mps 761 mmHg 52%
    02:00 +22°C° 0 mm 1 mps 761 mmHg 52%
    03:00 +22°C° 0 mm 1 mps 760 mmHg 54%
    04:00 +22°C° 0 mm 1 mps 760 mmHg 55%
    05:00 +22°C° 0 mm 1 mps 760 mmHg 57%
    06:00 +22°C° 0 mm 1 mps 761 mmHg 60%
    07:00 +22°C° 0 mm 1 mps 761 mmHg 64%
    08:00 +22°C° 0 mm 1 mps 761 mmHg 68%
    09:00 +23°C° 0 mm 2 mps 761 mmHg 68%
    10:00 +24°C° 0 mm 2 mps 761 mmHg 69%
    11:00 +24°C° 0 mm 3 mps 761 mmHg 70%
    12:00 +23°C° 0 mm 4 mps 761 mmHg 69%
    13:00 +23°C° 0 mm 5 mps 761 mmHg 69%
    14:00 +23°C° 0 mm 5 mps 760 mmHg 68%
    15:00 +22°C° 0 mm 5 mps 761 mmHg 68%
    16:00 +21°C° 0 mm 5 mps 761 mmHg 69%
    17:00 +20°C° 0 mm 5 mps 761 mmHg 69%
    18:00 +19°C° 0 mm 5 mps 762 mmHg 69%
    19:00 +17°C° 0 mm 5 mps 763 mmHg 69%
    20:00 +17°C° 0 mm 4 mps 763 mmHg 69%
    21:00 +17°C° 0 mm 4 mps 764 mmHg 69%
    22:00 +15°C° 0 mm 4 mps 764 mmHg 70%
    23:00 +15°C° 0 mm 4 mps 764 mmHg 71%

    30 April, Tuesday

    Time Temperature Precipitation Wind Pressure Humidity
    00:00 +14°C° 0 mm 5 mps 764 mmHg 72%
    01:00 +14°C° 0 mm 5 mps 764 mmHg 73%
    02:00 +13°C° 0 mm 5 mps 765 mmHg 75%
    03:00 +13°C° 0 mm 5 mps 765 mmHg 74%
    04:00 +12°C° 0 mm 4 mps 765 mmHg 73%
    05:00 +12°C° 0 mm 4 mps 765 mmHg 72%
    06:00 +12°C° 0 mm 4 mps 766 mmHg 70%
    07:00 +13°C° 0 mm 5 mps 766 mmHg 69%
    08:00 +13°C° 0 mm 5 mps 767 mmHg 67%
    09:00 +15°C° 0 mm 5 mps 767 mmHg 59%
    10:00 +17°C° 0 mm 5 mps 767 mmHg 52%
    11:00 +19°C° 0 mm 5 mps 767 mmHg 45%
    12:00 +20°C° 0 mm 5 mps 766 mmHg 41%
    13:00 +21°C° 0 mm 5 mps 765 mmHg 37%
    14:00 +23°C° 0 mm 4 mps 765 mmHg 33%
    15:00 +22°C° 0 mm 4 mps 765 mmHg 34%
    16:00 +22°C° 0 mm 4 mps 766 mmHg 35%
    17:00 +22°C° 0 mm 4 mps 766 mmHg 36%
    18:00 +20°C° 0 mm 4 mps 766 mmHg 39%
    19:00 +19°C° 0 mm 4 mps 767 mmHg 42%
    20:00 +18°C° 0 mm 4 mps 768 mmHg 46%
    21:00 +16°C° 0 mm 5 mps 768 mmHg 48%
    22:00 +16°C° 0 mm 5 mps 768 mmHg 51%
    23:00 +15°C° 0 mm 6 mps 769 mmHg 54%
    Show more